Change the Weather History Date:

Thursday, August 8, 2013

  Actual Average Record
Temperature  
Mean Temperature 72 °F -  
Max Temperature 77 °F 81 °F 92 °F (1980)
Min Temperature 69 °F 63 °F 50 °F (1957)
Cooling Degree Days 7    
Growing Degree Days 22 (Base 50)    
Moisture  
Dew Point 69 °F    
Average Humidity 90    
Maximum Humidity 97    
Minimum Humidity 81    
Precipitation  
Precipitation 0.12 in - - ()
Sea Level Pressure  
Sea Level Pressure 30.07 in    
Wind  
Wind Speed 9 mph (South)    
Max Wind Speed 14 mph    
Max Gust Speed -    
Visibility 8 miles    
Events Rain    
Averages and records for this station are not official NWS values.
T = Trace of Precipitation, MM = Missing Value Source: NWS Daily Summary

Daily Weather History Graph

Daily Weather History Graph

Search for Another Location

Airport or City:

Trip Planner

Search our weather history database for the weather conditions in past years. The results will help you decide how hot, cold, wet, or windy it might be!

Date:

Astronomy

Aug. 08, 2013 Rise Set
Actual Time 5:50 AM EDT 7:56 PM EDT
Civil Twilight 5:20 AM EDT 8:26 PM EDT
Nautical Twilight 4:42 AM EDT 9:03 PM EDT
Astronomical Twilight 4:02 AM EDT 9:44 PM EDT
Moon 7:36 AM EDT (8/8) 8:31 PM EDT (8/8)
Length of Visible Light 15h 06m
Length of Day
14h 05m
Waxing Crescent, 3% of the Moon is Illuminated
Aug 8
Waxing Crescent
Aug 14
First Quarter
Aug 20
Full
Aug 28
Last Quarter
Sep 5
New

Hourly Weather History & Observations

Time (EDT) Temp. Dew Point Humidity Pressure Visibility Wind Dir Wind Speed Gust Speed Precip Events Conditions
12:56 AM 71.1 °F 64.9 °F 81% 30.11 in 10.0 mi SSE 11.5 mph - N/A   Overcast
1:56 AM 71.1 °F 64.9 °F 81% 30.10 in 10.0 mi SSE 10.4 mph - N/A   Overcast
2:56 AM 71.1 °F 66.0 °F 84% 30.09 in 10.0 mi SSE 10.4 mph - 0.00 in   Overcast
3:56 AM 71.1 °F 66.0 °F 84% 30.08 in 10.0 mi SSE 10.4 mph - N/A   Overcast
4:54 AM 69.8 °F 66.2 °F 88% 30.08 in 2.5 mi South 9.2 mph - 0.09 in Rain Heavy Rain
4:56 AM 69.1 °F 66.9 °F 93% 30.08 in 2.5 mi South 8.1 mph - 0.09 in Rain Heavy Rain
5:03 AM 69.8 °F 66.2 °F 88% 30.07 in 4.0 mi SSE 8.1 mph - 0.02 in Rain Rain
5:13 AM 69.8 °F 66.2 °F 88% 30.08 in 4.0 mi South 8.1 mph - 0.03 in Rain Light Rain
5:24 AM 69.8 °F 66.2 °F 88% 30.08 in 9.0 mi South 6.9 mph - 0.03 in Rain Light Rain
5:56 AM 69.1 °F 66.9 °F 93% 30.08 in 9.0 mi SSE 5.8 mph - 0.03 in   Overcast
6:56 AM 70.0 °F 69.1 °F 97% 30.08 in 8.0 mi South 10.4 mph - 0.00 in   Overcast
7:05 AM 71.6 °F 69.8 °F 94% 30.08 in 8.0 mi South 11.5 mph - N/A   Overcast
7:35 AM 71.6 °F 69.8 °F 94% 30.08 in 8.0 mi South 13.8 mph - N/A   Overcast
7:56 AM 72.0 °F 69.1 °F 91% 30.08 in 9.0 mi SSW 11.5 mph - N/A   Overcast
8:03 AM 71.6 °F 69.8 °F 94% 30.08 in 9.0 mi South 12.7 mph - N/A   Overcast
8:20 AM 71.6 °F 69.8 °F 94% 30.08 in 9.0 mi SSW 9.2 mph - N/A   Overcast
8:56 AM 72.0 °F 70.0 °F 93% 30.09 in 8.0 mi SSW 9.2 mph - N/A   Overcast
9:04 AM 71.6 °F 68.0 °F 88% 30.09 in 9.0 mi SSW 11.5 mph - N/A   Overcast
9:21 AM 71.6 °F 69.8 °F 94% 30.09 in 9.0 mi SSW 9.2 mph - N/A   Overcast
9:44 AM 73.4 °F 69.8 °F 88% 30.09 in 8.0 mi SSW 8.1 mph - N/A   Overcast
9:54 AM 71.6 °F 69.8 °F 94% 30.09 in 8.0 mi SSW 10.4 mph - N/A   Overcast
9:56 AM 72.0 °F 69.1 °F 91% 30.09 in 8.0 mi SSW 9.2 mph - N/A   Overcast
10:22 AM 71.6 °F 69.8 °F 94% 30.09 in 8.0 mi South 9.2 mph - N/A   Overcast
10:56 AM 72.0 °F 69.1 °F 91% 30.09 in 8.0 mi South 10.4 mph - N/A   Overcast
11:56 AM 73.0 °F 70.0 °F 90% 30.07 in 7.0 mi South 9.2 mph - N/A   Overcast
12:32 PM 73.4 °F 69.8 °F 88% 30.07 in 8.0 mi South 3.5 mph - N/A   Overcast
12:56 PM 73.9 °F 70.0 °F 87% 30.07 in 7.0 mi South 9.2 mph - N/A   Overcast
1:56 PM 73.9 °F 70.0 °F 87% 30.07 in 8.0 mi South 6.9 mph - N/A   Overcast
2:56 PM 75.0 °F 70.0 °F 84% 30.08 in 7.0 mi SSE 6.9 mph - N/A   Overcast
3:56 PM 73.0 °F 69.1 °F 87% 30.06 in 6.0 mi South 8.1 mph - N/A   Overcast
4:32 PM 73.4 °F 69.8 °F 88% 30.05 in 6.0 mi South 4.6 mph - N/A   Haze
4:41 PM 73.4 °F 69.8 °F 88% 30.05 in 7.0 mi SSW 4.6 mph - N/A   Overcast
4:56 PM 75.0 °F 70.0 °F 84% 30.05 in 7.0 mi SSW 4.6 mph - N/A   Mostly Cloudy
5:56 PM 75.0 °F 71.1 °F 87% 30.04 in 7.0 mi SSW 9.2 mph - N/A   Overcast
6:56 PM 75.0 °F 71.1 °F 87% 30.05 in 8.0 mi SSW 10.4 mph - N/A   Overcast
7:45 PM 73.4 °F 71.6 °F 94% 30.05 in 7.0 mi SSW 5.8 mph - N/A   Overcast
7:56 PM 73.9 °F 71.1 °F 91% 30.05 in 9.0 mi SSW 6.9 mph - N/A   Overcast
8:56 PM 73.0 °F 71.1 °F 93% 30.07 in 9.0 mi SSW 8.1 mph - N/A   Mostly Cloudy
9:56 PM 72.0 °F 70.0 °F 93% 30.07 in 8.0 mi South 6.9 mph - N/A   Scattered Clouds
10:56 PM 71.1 °F 70.0 °F 96% 30.06 in 8.0 mi South 5.8 mph - N/A   Partly Cloudy
11:56 PM 72.0 °F 70.0 °F 93% 30.06 in 8.0 mi South 4.6 mph - N/A   Clear